Satellite-Ground Cal/Val Site Overpasses Predictions

Prediction of Satellite NPP Overpassing Cal/Val Site: Antarctic Dome C

Ground Cal/Val Site Location: Latitude: -75.10, Longitude: 123.35; Satellite-Ground Site NADIR distance within 100 km.

Table of predicted overpasses for the next 14.0 days since TLE Epoch: 9/2/2016
Interval Starting Time Ending Time Minimum Distance Time Minimum Distance (km)
1 09/02/2016 14:49:01 09/02/2016 14:49:30 09/02/2016 14:49:16 17.74
2 09/04/2016 07:31:49 09/04/2016 07:32:19 09/04/2016 07:32:04 1.90
3 09/07/2016 14:55:15 09/07/2016 14:55:44 09/07/2016 14:55:29 18.41
4 09/08/2016 14:36:32 09/08/2016 14:36:45 09/08/2016 14:36:39 88.48
5 09/09/2016 07:38:03 09/09/2016 07:38:31 09/09/2016 07:38:17 33.89
6 09/10/2016 07:19:17 09/10/2016 07:19:36 09/10/2016 07:19:26 76.37
7 09/12/2016 15:01:29 09/12/2016 15:01:54 09/12/2016 15:01:41 55.19
8 09/13/2016 14:42:39 09/13/2016 14:43:04 09/13/2016 14:42:52 53.95
9 09/14/2016 07:44:19 09/14/2016 07:44:40 09/14/2016 07:44:29 68.85
